[[{"header":{"parameterUnit":"m.s-1","parameterCategory":1,"la1":30.2991,"la2":30.254,"lo1":-89.0895,"lo2":-89.0444,"dy":0.0017,"dx":0.0017,"nx":28,"ny":28,"refTime":"2024-05-02T03:00:00:Z","depth":0,"parameterNumber":2,"parameterNumberName":"U-component_of_WINDS"},"data":[0,0,0,0,0,0,0,0,0,0,0,0,0,0,0,0,0,0,0,0,0,0,0,0,0,0,0,0,0,0,0,0,0,0,0,0,0,0,0,0,0,0,0,0,0,0,0,0,0,0,0,0,0,0,0,0,0,0,-3.0356,-3.0357,0,-3.0425,-3.0426,-3.0426,-3.0388,-3.0386,-3.0384,-3.0382,-3.0453,-3.0457,-3.046,0,0,0,0,0,0,0,0,0,0,0,0,0,-3.0193,-3.0196,-3.0356,-3.0357,-3.0358,-3.0425,-3.0426,-3.0427,-3.0388,-3.0386,-3.0383,-3.0381,-3.0452,-3.0456,-3.0461,0,0,0,0,0,0,0,0,0,0,0,0,0,-3.0263,-3.0197,-3.0356,-3.0347,-3.0346,-3.0424,-3.0426,-3.0427,-3.0389,-3.0386,-3.0383,-3.038,-3.0451,-3.0456,-3.0461,-3.0553,0,0,-3.0478,-3.0481,0,0,0,0,0,0,0,0,-3.0259,-3.0269,-3.0347,-3.0347,-3.0347,-3.0395,-3.0394,-3.0469,-3.0389,-3.0373,-3.0382,-3.0379,-3.0436,-3.0443,-3.0462,-3.0556,-3.0559,-3.0479,-3.0482,-3.0484,-3.0486,0,0,0,0,0,0,0,-3.0254,-3.0266,-3.0383,-3.0348,-3.0348,-3.0339,-3.0346,-3.0408,-3.042,-3.0374,-3.0371,-3.038,-3.0436,-3.0457,-3.0463,-3.056,-3.0479,-3.0483,-3.0487,-3.0489,-3.0733,-3.0736,0,0,0,0,0,0,-3.025,-3.0262,-3.0381,-3.0385,-3.0295,-3.0345,-3.0352,-3.0382,-3.0419,-3.0422,-3.0382,-3.0378,-3.0449,-3.0457,-3.0466,-3.0575,-3.0484,-3.049,-3.0493,-3.073,-3.0734,-3.0737,0,0,0,0,0,0,-3.0246,-3.0261,-3.0378,-3.0323,-3.0337,-3.0351,-3.0385,-3.0385,-3.0406,-3.0425,-3.0427,-3.0401,-3.0447,-3.0458,-3.0531,-3.0577,-3.0492,-3.0497,-3.0726,-3.0731,-3.0736,-3.0795,0,0,0,0,0,0,-3.0242,-3.026,-3.0294,-3.0324,-3.034,-3.0443,-3.0388,-3.0389,-3.0416,-3.0411,-3.0444,-3.0446,-3.0445,-3.0523,-3.0537,-3.0583,-3.0501,-3.0722,-3.0729,-3.0734,-3.0789,-3.0801,-3.0811,0,0,0,0,0,-3.0236,-3.0308,-3.0296,-3.0311,-3.0384,-3.0445,-3.0455,-3.0452,-3.042,-3.0455,-3.0467,-3.0445,-3.057,-3.0531,-3.0546,-3.0595,-3.0719,-3.0727,-3.0734,-3.0784,-3.0798,-3.0811,0,0,0,0,0,0,-3.0284,-3.0312,-3.0299,-3.0383,-3.0412,-3.0439,-3.0483,-3.0468,-3.0507,-3.05,-3.0495,-3.0503,-3.058,-3.0595,-3.0551,-3.0685,-3.064,-3.065,-3.0673,-3.0687,-3.0698,-3.0693,-3.0506,0,0,0,0,0,-3.0304,-3.0351,-3.0373,-3.0445,-3.0461,-3.0469,-3.0496,-3.0491,-3.0522,-3.0534,-3.0551,-3.0582,-3.0628,-3.0658,-3.0702,-3.0791,-3.0798,-3.0832,-3.0843,-3.0852,-3.0861,-3.091,-3.0925,-3.0761,-3.0761,-3.0761,0,0,-3.0346,-3.0367,-3.0397,-3.0455,-3.0477,-3.0527,-3.048,-3.0534,-3.0571,-3.0542,-3.0613,-3.0627,-3.066,-3.0742,-3.0779,-3.0757,-3.0908,-3.0861,-3.0868,-3.0872,-3.0919,-3.0934,-3.0948,-3.0766,-3.0765,-3.0764,0,0,-3.0448,-3.0469,-3.0531,-3.0554,-3.0588,-3.0594,-3.0609,-3.0638,-3.0647,-3.0717,-3.0697,-3.0741,-3.082,-3.0845,-3.0868,-3.0981,-3.0962,-3.0995,-3.1054,-3.1101,-3.1114,-3.1126,-3.1166,-3.118,-3.1004,-3.1004,-3.1004,0,-3.0496,-3.057,-3.0565,-3.0621,-3.0647,-3.0623,-3.0687,-3.071,-3.0756,-3.0775,-3.075,-3.0849,-3.087,-3.0957,-3.0985,-3.1005,-3.1022,-3.0991,-3.1113,-3.1124,-3.1135,-3.1173,-3.1188,-3.1008,-3.1007,-3.1007,-3.1007,0,-3.0627,-3.0679,-3.0725,-3.0771,-3.0802,-3.0862,-3.0866,-3.0899,-3.0892,-3.09,-3.0973,-3.0997,-3.1045,-3.1066,-3.1059,-3.1153,-3.1138,-3.1113,-3.1067,-3.1154,-3.119,-3.1205,-3.1013,-3.1012,-3.1011,-3.101,0,0,-3.0761,-3.0803,-3.082,-3.0841,-3.0877,-3.0917,-3.0976,-3.1023,-3.1051,-3.1084,-3.1133,-3.1201,-3.1178,-3.1205,-3.1201,-3.1243,-3.1331,-3.1212,-3.1213,-3.1233,-3.1435,-3.1454,-3.1471,-3.1319,-3.1322,-3.1324,-3.1433,0,-3.0865,-3.0967,-3.0965,-3.106,-3.1108,-3.1086,-3.1137,-3.1165,-3.1175,-3.1217,-3.1228,-3.1276,-3.1242,-3.1258,-3.1298,-3.1311,-3.1371,-3.1304,-3.1365,-3.1367,-3.1357,-3.149,-3.151,-3.1611,-3.1447,-3.1449,-3.1451,0,-3.1,-3.1038,-3.1138,-3.1167,-3.1187,-3.1233,-3.1276,-3.1317,-3.1349,-3.1353,-3.1383,-3.1372,-3.1433,-3.1385,-3.1468,-3.1422,-3.1448,-3.1458,-3.1462,-3.1467,-3.1414,-3.1499,-3.1643,-3.1658,-3.1473,-3.1471,-3.1469,0,-3.1088,-3.1163,-3.1233,-3.1251,-3.1287,-3.132,-3.1337,-3.1366,-3.1394,-3.1432,-3.1451,-3.1495,-3.152,-3.1555,-3.1557,-3.1522,-3.1641,-3.1594,-3.1646,-3.1646,-3.1672,-3.167,-3.1822,-3.1689,-3.1688,-3.1688,-3.1688,0,-3.1204,-3.1266,-3.1273,-3.1315,-3.1384,-3.1382,-3.145,-3.1464,-3.149,-3.1535,-3.152,-3.1563,-3.1563,-3.1607,-3.161,-3.1678,-3.1689,-3.1694,-3.1694,-3.1696,-3.1695,-3.1712,-3.1705,-3.1692,-3.1691,-3.169,-3.169,0,-3.1313,-3.132,-3.1394,-3.1423,-3.1431,-3.1481,-3.1505,-3.1547,-3.1555,-3.1613,-3.1626,-3.1639,-3.1691,-3.1696,-3.1756,-3.1758,-3.184,-3.1833,-3.183,-3.1828,-3.188,-3.1875,-3.2048,-3.2071,-3.1923,-3.1924,-3.1925,0,-3.1387,-3.1434,-3.1468,-3.1497,-3.1516,-3.1563,-3.1592,-3.1591,-3.1622,-3.1662,-3.1699,-3.1748,-3.1788,-3.1871,-3.1886,-3.1932,-3.1925,-3.1982,-3.1932,-3.1932,-3.1926,-3.1923,-3.1928,-3.1992,-3.1994,-3.1995,-3.1996,0,-3.1518,-3.1519,-3.1561,-3.1605,-3.164,-3.1675,-3.1707,-3.1732,-3.1736,-3.1771,-3.1823,-3.1854,-3.1915,-3.1965,-3.201,-3.2027,-3.2013,-3.2012,-3.2027,-3.2029,-3.2025,-3.2028,-3.1856,-3.2008,-3.2007,-3.2006,-3.2005,-3.2005,-3.1612,-3.1653,-3.1683,-3.1731,-3.1755,-3.1786,-3.1826,-3.1839,-3.1882,-3.1932,-3.1929,-3.1987,-3.2018,-3.2077,-3.2098,-3.2143,-3.2124,-3.2145,-3.215,-3.2156,-3.2161,-3.2018,-3.2151,-3.2151,-3.2151,-3.215,-3.215,0,-3.1742,-3.176,-3.1804,-3.185,-3.1888,-3.187,-3.1905,-3.1938,-3.1989,-3.2019,-3.2058,-3.2119,-3.2167,-3.2186,-3.2233,-3.2266,-3.226,-3.2278,-3.2276,-3.228,-3.2175,-3.2158,-3.2282,-3.2282,-3.2282,-3.2282,-3.2282,-3.2282,-3.1814,-3.1882,-3.1887,-3.1968,-3.1986,-3.2042,-3.2063,-3.2092,-3.2116,-3.2184,-3.2223,-3.2235,-3.2261,-3.231,-3.2354,-3.2358,-3.2377,-3.2398,-3.2399,-3.2301,-3.2287,-3.2275,-3.2258,-3.2402,-3.2402,-3.25,-3.2501,-3.2502]},{"header":{"parameterUnit":"m.s-1","parameterCategory":1,"la1":30.2991,"la2":30.254,"lo1":-89.0895,"lo2":-89.0444,"dy":0.0017,"dx":0.0017,"nx":28,"ny":28,"refTime":"2024-05-02T03:00:00:Z","depth":0,"parameterNumber":3,"parameterNumberName":"V-component_of_WINDS"},"data":[0,0,0,0,0,0,0,0,0,0,0,0,0,0,0,0,0,0,0,0,0,0,0,0,0,0,0,0,0,0,0,0,0,0,0,0,0,0,0,0,0,0,0,0,0,0,0,0,0,0,0,0,0,0,0,0,0,0,1.9545,1.9544,0,1.9472,1.9471,1.947,1.9401,1.94,1.9399,1.9399,1.9322,1.9321,1.9319,0,0,0,0,0,0,0,0,0,0,0,0,0,1.9625,1.9624,1.9545,1.9544,1.9543,1.9472,1.9471,1.947,1.9401,1.94,1.9399,1.9398,1.9322,1.9321,1.9319,0,0,0,0,0,0,0,0,0,0,0,0,0,1.9575,1.9624,1.9545,1.95,1.9496,1.9472,1.9471,1.9469,1.9401,1.94,1.9399,1.9398,1.9323,1.9321,1.9319,1.9333,0,0,1.9313,1.9313,0,0,0,0,0,0,0,0,1.9578,1.9572,1.9508,1.9504,1.9498,1.9444,1.9471,1.9424,1.9402,1.9437,1.9399,1.9397,1.9364,1.9358,1.9347,1.933,1.9326,1.9313,1.9312,1.9311,1.9311,0,0,0,0,0,0,0,1.9581,1.9575,1.9516,1.9507,1.9501,1.9484,1.9475,1.9462,1.9408,1.9434,1.9429,1.9421,1.9361,1.9349,1.9345,1.9325,1.9313,1.9312,1.931,1.931,1.9316,1.9317,0,0,0,0,0,0,1.9592,1.9578,1.9518,1.9514,1.9536,1.9483,1.9474,1.9463,1.9408,1.9399,1.9422,1.9418,1.9353,1.9347,1.9342,1.9355,1.9311,1.931,1.9309,1.9315,1.9316,1.9318,0,0,0,0,0,0,1.9594,1.9587,1.9521,1.9544,1.9535,1.9483,1.9472,1.9462,1.9451,1.94,1.939,1.9421,1.9352,1.9345,1.9336,1.9351,1.9309,1.9307,1.9313,1.9315,1.9317,1.9381,0,0,0,0,0,0,1.9596,1.9588,1.9593,1.9545,1.9534,1.9517,1.9472,1.9462,1.9448,1.9442,1.9395,1.9386,1.935,1.9339,1.9334,1.9348,1.9306,1.9312,1.9314,1.9316,1.9378,1.9385,1.9392,0,0,0,0,0,1.9599,1.9614,1.9594,1.9587,1.9539,1.9518,1.9512,1.947,1.9449,1.9454,1.9421,1.9388,1.9351,1.9339,1.9333,1.9346,1.931,1.9313,1.9316,1.9375,1.9384,1.9392,0,0,0,0,0,0,1.9664,1.9607,1.9584,1.9583,1.9556,1.9507,1.9511,1.9481,1.9459,1.9454,1.9404,1.9394,1.9391,1.9368,1.9356,1.9357,1.9326,1.9328,1.9373,1.9381,1.9388,1.9393,1.9304,0,0,0,0,0,1.9679,1.9667,1.9617,1.9621,1.9609,1.9563,1.9552,1.9523,1.9492,1.948,1.9447,1.9418,1.94,1.9389,1.937,1.9374,1.9363,1.9381,1.9388,1.9394,1.9396,1.9397,1.9404,1.9327,1.9327,1.9327,0,0,1.9708,1.9675,1.9671,1.9634,1.9609,1.9598,1.9553,1.9543,1.9534,1.9478,1.9468,1.9443,1.9408,1.9407,1.9404,1.9387,1.9415,1.9397,1.9403,1.9401,1.94,1.9408,1.9414,1.9329,1.9329,1.9328,0,0,1.9755,1.973,1.973,1.9707,1.9671,1.964,1.9641,1.9596,1.9577,1.9566,1.9525,1.9513,1.9483,1.946,1.9444,1.9484,1.9453,1.9479,1.9516,1.9518,1.9524,1.9529,1.9543,1.9549,1.9482,1.9482,1.9482,0,1.9796,1.9778,1.9734,1.9727,1.9712,1.9662,1.9662,1.9642,1.9601,1.9592,1.9574,1.9535,1.9508,1.95,1.951,1.9499,1.9498,1.9484,1.9526,1.9531,1.9535,1.9548,1.9554,1.9485,1.9485,1.9485,1.9484,0,1.983,1.9818,1.9823,1.9785,1.9771,1.9768,1.9724,1.9714,1.9686,1.9658,1.9648,1.9614,1.9587,1.9583,1.9555,1.9571,1.9562,1.9536,1.9503,1.9547,1.9558,1.9563,1.949,1.9489,1.9488,1.9487,0,0,1.9915,1.9855,1.9857,1.984,1.9797,1.9787,1.9781,1.9755,1.9748,1.9722,1.9716,1.9693,1.9668,1.9651,1.962,1.9622,1.9656,1.9595,1.9594,1.9608,1.9672,1.9692,1.9698,1.9635,1.9636,1.9637,1.9675,0,1.9955,1.9942,1.9904,1.9903,1.9891,1.9844,1.9839,1.9813,1.9786,1.9772,1.9742,1.9726,1.9695,1.9685,1.9684,1.9652,1.9668,1.9649,1.9629,1.9629,1.9639,1.9704,1.9725,1.9762,1.9679,1.968,1.968,0,2.0,1.9977,1.9976,1.9934,1.9928,1.9924,1.9898,1.9885,1.9854,1.9834,1.9815,1.9782,1.9773,1.9744,1.9732,1.9719,1.9709,1.9692,1.9693,1.9689,1.9657,1.9702,1.9773,1.9779,1.9687,1.9686,1.9686,0,2.0062,2.0032,2.0027,2.0013,1.9965,1.9963,1.9943,1.991,1.9898,1.9875,1.9866,1.9842,1.9829,1.9811,1.9772,1.9754,1.9764,1.9732,1.9748,1.9749,1.9751,1.9752,1.9822,1.9746,1.9746,1.9745,1.9745,0,2.0111,2.0111,2.0054,2.0051,2.0051,2.0006,2.0007,1.9982,1.9954,1.9945,1.9903,1.9896,1.9845,1.9832,1.9801,1.9796,1.979,1.9774,1.9766,1.9777,1.9779,1.9769,1.9766,1.9747,1.9747,1.9746,1.9746,0,2.018,2.0142,2.0133,2.0088,2.0077,2.0079,2.004,2.0035,2.0006,1.9996,1.9991,1.9945,1.9927,1.9887,1.9858,1.9838,1.984,1.9826,1.9851,1.9846,1.9864,1.9863,1.993,1.9937,1.9857,1.9858,1.9859,0,2.0213,2.0213,2.0168,2.0159,2.0141,2.0127,2.0114,2.0071,2.0059,2.0024,2.0024,2.0003,1.9984,1.9958,1.9922,1.99,1.9885,1.991,1.9881,1.9893,1.9885,1.9885,1.9885,1.9916,1.9917,1.9918,1.9919,0,2.0276,2.0258,2.0241,2.0218,2.0204,2.0183,2.016,2.0156,2.0107,2.0096,2.0077,2.0063,2.0034,2.0014,1.9987,1.9965,1.9934,1.9928,1.9931,1.9942,1.9957,1.9949,1.9868,1.9927,1.9926,1.9925,1.9925,1.9924,2.0328,2.0326,2.0294,2.0277,2.0256,2.0236,2.0229,2.02,2.0184,2.0158,2.0133,2.0117,2.0087,2.0047,2.0028,2.0015,1.9999,2.0003,2.0003,2.0005,2.001,1.996,2.001,2.0009,2.0009,2.0009,2.0009,0,2.0389,2.0367,2.0351,2.0321,2.0308,2.028,2.0254,2.0244,2.0231,2.0206,2.0188,2.0168,2.0148,2.0112,2.0089,2.0086,2.0071,2.0081,2.0081,2.0076,2.0026,2.0026,2.0094,2.0094,2.0094,2.0094,2.0094,2.0094,2.0419,2.0414,2.0392,2.0376,2.0353,2.0338,2.0325,2.0306,2.0285,2.0265,2.0248,2.0225,2.0195,2.017,2.0151,2.0141,2.0134,2.0149,2.0134,2.0088,2.008,2.0072,2.0072,2.0148,2.0148,2.0186,2.0186,2.0187]}]]